User: anonymous   Login
Location: Friaudour
(46.0460°N, 1.2873°E)
Time: 09:41:43
(UTC+00:00)
Language:

Aureole 1 Rocket - Orbit

View from above orbital plane
View from above orbital plane
View from above satellite
View from above satellite

Ground track
Ground track

The orbit data is extracted from the following two-line orbital elements,

1  5730U 71119B   20271.89212641 +.00001439 +00000-0 +93925-4 0  9998
2  5730 073.8938 174.2844 0689703 179.6535 180.5239 14.04349740373832
Epoch (UTC): 27 September 2020 21:24:39
Eccentricity: 0.0689703
inclination: 73.8938°
perigee height: 378 km
apogee height: 1379 km
right ascension of ascending node: 174.2844°
argument of perigee: 179.6535°
revolutions per day: 14.04349740
mean anomaly at epoch: 180.5239°
orbit number at epoch: 37383

The dashed part of the orbit path shows where the satellite is in the earth's shadow,  

DLR